When you browse on this site, cookies collect data to enhance your experience and personalize the content and advertising you see.
Visit our Privacy Policy to learn more. By continuing to use the site, you agree to this use of cookies and data.
  • In Hungary
  • List of Countries
  • For 7 days
  • Water Temperature
  • Satellite Maps
  • Weather Map
  • News
  • Weather Widgets
  • user-avatar
    Login

    Hourly Weather Chernomorec

    Today, 20 January, Sunday

    Time Temperature Precipitation Wind Pressure Humidity
    00:00 +6°C° 0.2 mm 5 mps 765 mmHg 90%
    01:00 +6°C° 0.2 mm 5 mps 765 mmHg 91%
    02:00 +6°C° 0 mm 4 mps 764 mmHg 92%
    03:00 +6°C° 0.1 mm 4 mps 764 mmHg 93%
    04:00 +6°C° 0.1 mm 4 mps 764 mmHg 94%
    05:00 +6°C° 0.1 mm 4 mps 764 mmHg 95%
    06:00 +6°C° 0 mm 4 mps 763 mmHg 95%
    07:00 +7°C° 0 mm 4 mps 763 mmHg 95%
    08:00 +6°C° 0 mm 4 mps 763 mmHg 95%
    09:00 +8°C° 0 mm 3 mps 763 mmHg 91%
    10:00 +9°C° 0 mm 3 mps 763 mmHg 87%
    11:00 +10°C° 0 mm 3 mps 763 mmHg 83%
    12:00 +11°C° 0 mm 3 mps 762 mmHg 82%
    13:00 +11°C° 0 mm 3 mps 762 mmHg 80%
    14:00 +11°C° 0 mm 3 mps 761 mmHg 81%
    15:00 +12°C° 0.1 mm 2 mps 761 mmHg 83%
    16:00 +10°C° 0.1 mm 2 mps 761 mmHg 85%
    17:00 +10°C° 0.1 mm 2 mps 760 mmHg 87%
    18:00 +10°C° 0 mm 2 mps 760 mmHg 88%
    19:00 +9°C° 0 mm 2 mps 760 mmHg 89%
    20:00 +9°C° 0 mm 2 mps 760 mmHg 89%
    21:00 +9°C° 0.1 mm 2 mps 760 mmHg 89%
    22:00 +9°C° 0.1 mm 2 mps 760 mmHg 89%
    23:00 +8°C° 0.1 mm 2 mps 760 mmHg 90%

    Tomorrow, 21 January, Monday

    Time Temperature Precipitation Wind Pressure Humidity
    00:00 +8°C° 0 mm 2 mps 760 mmHg 91%
    01:00 +8°C° 0 mm 2 mps 760 mmHg 91%
    02:00 +7°C° 0 mm 2 mps 760 mmHg 92%
    03:00 +7°C° 0 mm 2 mps 760 mmHg 93%
    04:00 +7°C° 0 mm 2 mps 761 mmHg 93%
    05:00 +7°C° 0 mm 3 mps 761 mmHg 93%
    06:00 +5°C° 0 mm 3 mps 761 mmHg 92%
    07:00 +5°C° 0 mm 3 mps 762 mmHg 91%
    08:00 +4°C° 0 mm 3 mps 762 mmHg 90%
    09:00 +5°C° 0 mm 3 mps 762 mmHg 83%
    10:00 +7°C° 0 mm 3 mps 763 mmHg 76%
    11:00 +8°C° 0 mm 3 mps 763 mmHg 69%
    12:00 +8°C° 0 mm 3 mps 763 mmHg 67%
    13:00 +7°C° 0 mm 4 mps 763 mmHg 66%
    14:00 +8°C° 0 mm 4 mps 763 mmHg 64%
    15:00 +7°C° 0 mm 4 mps 763 mmHg 68%
    16:00 +6°C° 0 mm 4 mps 764 mmHg 72%
    17:00 +5°C° 0 mm 3 mps 764 mmHg 76%
    18:00 +5°C° 0 mm 4 mps 764 mmHg 78%
    19:00 +4°C° 0 mm 4 mps 765 mmHg 81%
    20:00 +3°C° 0 mm 4 mps 765 mmHg 83%
    21:00 +3°C° 0 mm 4 mps 765 mmHg 84%
    22:00 +3°C° 0 mm 4 mps 766 mmHg 84%
    23:00 +3°C° 0 mm 4 mps 766 mmHg 84%

    Day after tomorrow, 22 January, Tuesday

    Time Temperature Precipitation Wind Pressure Humidity
    00:00 +3°C° 0 mm 4 mps 766 mmHg 85%
    01:00 +3°C° 0 mm 4 mps 766 mmHg 85%
    02:00 +3°C° 0 mm 4 mps 766 mmHg 86%
    03:00 +3°C° 0 mm 4 mps 765 mmHg 86%
    04:00 +3°C° 0 mm 3 mps 765 mmHg 87%
    05:00 +3°C° 0 mm 3 mps 765 mmHg 87%
    06:00 +3°C° 0 mm 3 mps 765 mmHg 87%
    07:00 +3°C° 0 mm 4 mps 765 mmHg 87%
    08:00 +3°C° 0 mm 4 mps 765 mmHg 86%
    09:00 +4°C° 0 mm 4 mps 765 mmHg 84%
    10:00 +4°C° 0 mm 4 mps 765 mmHg 82%
    11:00 +5°C° 0 mm 4 mps 764 mmHg 79%
    12:00 +5°C° 0 mm 4 mps 764 mmHg 79%
    13:00 +6°C° 0 mm 4 mps 763 mmHg 80%
    14:00 +6°C° 0 mm 4 mps 762 mmHg 80%
    15:00 +6°C° 0 mm 4 mps 762 mmHg 82%
    16:00 +5°C° 0 mm 4 mps 761 mmHg 84%
    17:00 +5°C° 0 mm 4 mps 761 mmHg 86%
    18:00 +5°C° 0 mm 4 mps 761 mmHg 88%
    19:00 +5°C° 0 mm 4 mps 760 mmHg 89%
    20:00 +5°C° 0 mm 4 mps 760 mmHg 91%
    21:00 +5°C° 0 mm 5 mps 760 mmHg 92%
    22:00 +5°C° 0 mm 5 mps 759 mmHg 92%
    23:00 +5°C° 0 mm 5 mps 759 mmHg 93%

    23 January, Wednesday

    Time Temperature Precipitation Wind Pressure Humidity
    00:00 +6°C° 0 mm 5 mps 758 mmHg 93%
    01:00 +6°C° 0 mm 5 mps 757 mmHg 93%
    02:00 +6°C° 0 mm 5 mps 757 mmHg 94%
    03:00 +5°C° 1.9 mm 6 mps 756 mmHg 92%
    04:00 +7°C° 1.9 mm 6 mps 755 mmHg 91%
    05:00 +7°C° 1.9 mm 6 mps 754 mmHg 90%
    06:00 +8°C° 0.1 mm 6 mps 754 mmHg 88%
    07:00 +8°C° 0.1 mm 6 mps 754 mmHg 86%
    08:00 +8°C° 0.1 mm 6 mps 754 mmHg 85%
    09:00 +10°C° 0 mm 6 mps 753 mmHg 81%
    10:00 +11°C° 0 mm 7 mps 753 mmHg 77%
    11:00 +12°C° 0 mm 8 mps 753 mmHg 73%
    12:00 +14°C° 0 mm 7 mps 753 mmHg 69%
    13:00 +14°C° 0 mm 7 mps 753 mmHg 64%
    14:00 +15°C° 0 mm 7 mps 752 mmHg 60%
    15:00 +14°C° 0 mm 7 mps 753 mmHg 65%
    16:00 +13°C° 0 mm 6 mps 753 mmHg 70%
    17:00 +11°C° 0 mm 6 mps 753 mmHg 74%
    18:00 +12°C° 0 mm 5 mps 753 mmHg 77%
    19:00 +12°C° 0 mm 5 mps 754 mmHg 79%
    20:00 +10°C° 0 mm 5 mps 754 mmHg 82%
    21:00 +10°C° 0 mm 5 mps 754 mmHg 82%
    22:00 +10°C° 0 mm 5 mps 754 mmHg 83%
    23:00 +10°C° 0 mm 5 mps 755 mmHg 83%

    24 January, Thursday

    Time Temperature Precipitation Wind Pressure Humidity
    00:00 +10°C° 0.3 mm 4 mps 754 mmHg 85%
    01:00 +10°C° 0.3 mm 4 mps 754 mmHg 87%
    02:00 +10°C° 0.3 mm 3 mps 754 mmHg 89%
    03:00 +10°C° 0.7 mm 3 mps 754 mmHg 90%
    04:00 +10°C° 0.7 mm 3 mps 753 mmHg 92%
    05:00 +9°C° 0.7 mm 3 mps 753 mmHg 94%
    06:00 +8°C° 0.1 mm 4 mps 753 mmHg 93%
    07:00 +8°C° 0.1 mm 4 mps 753 mmHg 92%
    08:00 +8°C° 0.1 mm 4 mps 753 mmHg 91%
    09:00 +9°C° 0 mm 5 mps 753 mmHg 86%
    10:00 +10°C° 0 mm 5 mps 753 mmHg 81%
    11:00 +11°C° 0 mm 6 mps 752 mmHg 75%
    12:00 +12°C° 0 mm 5 mps 752 mmHg 75%
    13:00 +12°C° 0 mm 5 mps 751 mmHg 74%
    14:00 +12°C° 0 mm 5 mps 750 mmHg 73%
    15:00 +12°C° 0 mm 5 mps 750 mmHg 76%
    16:00 +10°C° 0 mm 5 mps 750 mmHg 80%
    17:00 +10°C° 0 mm 4 mps 750 mmHg 84%
    18:00 +8°C° 0 mm 4 mps 750 mmHg 86%
    19:00 +8°C° 0 mm 4 mps 751 mmHg 88%
    20:00 +8°C° 0 mm 4 mps 751 mmHg 89%
    21:00 +8°C° 0 mm 4 mps 751 mmHg 90%
    22:00 +8°C° 0 mm 3 mps 751 mmHg 91%
    23:00 +8°C° 0 mm 3 mps 751 mmHg 93%

    25 January, Friday

    Time Temperature Precipitation Wind Pressure Humidity
    00:00 +8°C° 0 mm 3 mps 751 mmHg 93%
    01:00 +8°C° 0 mm 3 mps 751 mmHg 93%
    02:00 +7°C° 0 mm 3 mps 751 mmHg 93%
    03:00 +8°C° 0 mm 2 mps 751 mmHg 92%
    04:00 +8°C° 0 mm 2 mps 751 mmHg 92%
    05:00 +8°C° 0 mm 2 mps 751 mmHg 92%
    06:00 +8°C° 0.3 mm 2 mps 751 mmHg 93%
    07:00 +8°C° 0.3 mm 2 mps 751 mmHg 94%
    08:00 +8°C° 0.3 mm 2 mps 751 mmHg 94%
    09:00 +9°C° 0.1 mm 2 mps 752 mmHg 89%
    10:00 +12°C° 0.1 mm 2 mps 752 mmHg 84%
    11:00 +13°C° 0.1 mm 2 mps 752 mmHg 79%
    12:00 +13°C° 0.2 mm 2 mps 752 mmHg 79%
    13:00 +12°C° 0.2 mm 3 mps 751 mmHg 79%
    14:00 +12°C° 0.2 mm 3 mps 751 mmHg 78%
    15:00 +11°C° 0.1 mm 3 mps 751 mmHg 80%
    16:00 +11°C° 0.1 mm 4 mps 750 mmHg 82%
    17:00 +10°C° 0.1 mm 4 mps 750 mmHg 84%
    18:00 +9°C° 0.4 mm 5 mps 750 mmHg 85%
    19:00 +9°C° 0.4 mm 5 mps 750 mmHg 86%
    20:00 +9°C° 0.4 mm 6 mps 750 mmHg 87%
    21:00 +9°C° 0.3 mm 5 mps 750 mmHg 87%
    22:00 +8°C° 0.3 mm 4 mps 750 mmHg 88%
    23:00 +9°C° 0.3 mm 3 mps 750 mmHg 88%
    Show more